Weather History for Poplar Bluff, MO

Change the Weather History Date:

Monday, April 29, 2013

  Actual Average Record
Temperature  
Mean Temperature 60 °F -  
Max Temperature 75 °F 74 °F 92 °F (1952)
Min Temperature 46 °F 51 °F 34 °F (2008)
Degree Days  
Heating Degree Days 4    
Growing Degree Days 10 (Base 50)    
Moisture  
Dew Point 51 °F    
Average Humidity 87    
Maximum Humidity 100    
Minimum Humidity 62    
Precipitation  
Precipitation 0.00 in - - ()
Sea Level Pressure  
Sea Level Pressure 29.93 in    
Wind  
Wind Speed 2 mph (South)    
Max Wind Speed 13 mph    
Max Gust Speed -    
Visibility 5 miles    
Events Fog    
Averages and records for this station are not official NWS values.
T = Trace of Precipitation, MM = Missing Value Source: NWS Daily Summary

Daily Weather History Graph

Daily Weather History Graph

Search for Another Location

Airport:

Trip Planner

Search our weather history database for the weather conditions in past years. The results will help you decide how hot, cold, wet, or windy it might be!

Date:

Astronomy

Apr. 29, 2013 Rise Set
Actual Time 6:09 AM CDT 7:48 PM CDT
Civil Twilight 5:41 AM CDT 8:16 PM CDT
Nautical Twilight 5:08 AM CDT 8:49 PM CDT
Astronomical Twilight 4:33 AM CDT 9:24 PM CDT
Moon No Moon Rise 9:32 AM CDT (4/29)
Length of Visible Light 14h 34m
Length of Day
13h 39m
Waning Gibbous, 80% of the Moon is Illuminated
Apr 29
Waning Gibbous
May 2
Last Quarter
May 9
New
May 17
First Quarter
May 24
Full

Hourly Weather History & Observations

Time (CDT) Temp. Dew Point Humidity Pressure Visibility Wind Dir Wind Speed Gust Speed Precip Events Conditions
12:53 AM 52.0 °F 50.0 °F 93% 29.94 in 10.0 mi Calm Calm - N/A   Clear
1:14 AM 51.8 °F 48.2 °F 88% 29.94 in 1.8 mi Calm Calm - N/A   Clear
1:23 AM 51.8 °F 48.2 °F 88% 29.94 in 4.0 mi Calm Calm - N/A   Clear
1:51 AM 51.8 °F 48.2 °F 88% 29.93 in 5.0 mi Calm Calm - N/A   Partly Cloudy
1:53 AM 51.1 °F 48.0 °F 89% 29.94 in 4.0 mi Calm Calm - N/A   Partly Cloudy
1:55 AM 50.0 °F 48.2 °F 94% 29.93 in 1.2 mi Calm Calm - N/A   Partly Cloudy
1:58 AM 50.0 °F 48.2 °F 94% 29.93 in 0.8 mi Calm Calm - N/A   Mist
2:23 AM 50.0 °F 48.2 °F 94% 29.93 in 1.5 mi Calm Calm - N/A   Overcast
2:39 AM 50.0 °F 48.2 °F 94% 29.93 in 0.5 mi Calm Calm - N/A Fog Fog
2:50 AM 50.0 °F 46.4 °F 87% 29.92 in 0.2 mi Calm Calm - N/A Fog Fog
2:53 AM 48.9 °F 46.9 °F 93% 29.93 in 0.2 mi Calm Calm - N/A Fog Fog
2:59 AM 48.2 °F 48.2 °F 100% 29.92 in 1.0 mi Calm Calm - N/A   Mist
3:03 AM 48.2 °F 46.4 °F 93% 29.92 in 3.0 mi Calm Calm - N/A   Mostly Cloudy
3:10 AM 48.2 °F 46.4 °F 93% 29.92 in 2.0 mi Calm Calm - N/A   Scattered Clouds
3:17 AM 48.2 °F 46.4 °F 93% 29.92 in 1.8 mi Calm Calm - N/A   Mostly Cloudy
3:29 AM 48.2 °F 46.4 °F 93% 29.93 in 0.8 mi NW 3.5 mph - N/A   Mist
3:51 AM 48.2 °F 46.4 °F 93% 29.94 in 0.2 mi Calm Calm - N/A Fog Fog
3:53 AM 48.0 °F 46.9 °F 96% 29.94 in 0.2 mi Calm Calm - N/A Fog Fog
4:13 AM 48.2 °F 46.4 °F 93% 29.93 in 0.8 mi Calm Calm - N/A   Mist
4:20 AM 48.2 °F 46.4 °F 93% 29.94 in 1.8 mi Calm Calm - N/A   Mostly Cloudy
4:26 AM 48.2 °F 46.4 °F 93% 29.94 in 3.0 mi Calm Calm - N/A   Mostly Cloudy
4:41 AM 48.2 °F 46.4 °F 93% 29.94 in 1.8 mi Calm Calm - N/A   Overcast
4:53 AM 48.0 °F 46.0 °F 93% 29.94 in 0.8 mi Calm Calm - N/A   Overcast
5:02 AM 46.4 °F 46.4 °F 100% 29.94 in 1.5 mi Calm Calm - N/A   Mostly Cloudy
5:19 AM 46.4 °F 46.4 °F 100% 29.94 in 0.8 mi Calm Calm - N/A   Mostly Cloudy
5:27 AM 48.2 °F 46.4 °F 93% 29.94 in 1.2 mi Calm Calm - N/A   Mostly Cloudy
5:39 AM 46.4 °F 46.4 °F 100% 29.94 in 0.5 mi Calm Calm - N/A Fog Fog
5:53 AM 46.9 °F 46.0 °F 97% 29.95 in 0.5 mi Calm Calm - N/A Fog Fog
6:01 AM 46.4 °F 44.6 °F 93% 29.95 in 1.2 mi Calm Calm - N/A   Scattered Clouds
6:09 AM 46.4 °F 44.6 °F 93% 29.95 in 0.8 mi Calm Calm - N/A   Mist
6:17 AM 46.4 °F 44.6 °F 93% 29.95 in 1.0 mi Calm Calm - N/A   Clear
6:20 AM 48.2 °F 44.6 °F 87% 29.95 in 3.0 mi Calm Calm - N/A   Clear
6:53 AM 48.9 °F 46.9 °F 93% 29.97 in 10.0 mi NNW 3.5 mph - N/A   Clear
7:53 AM 53.1 °F 51.1 °F 93% 29.99 in 10.0 mi Calm Calm - N/A   Clear
8:53 AM 57.9 °F 53.1 °F 84% 29.99 in 10.0 mi SSW 6.9 mph - N/A   Clear
9:53 AM 62.1 °F 55.0 °F 78% 29.99 in 10.0 mi SSW 10.4 mph - N/A   Clear
10:53 AM 64.9 °F 55.9 °F 73% 30.00 in 10.0 mi SSW 12.7 mph - N/A   Partly Cloudy
11:53 AM 66.9 °F 57.0 °F 70% 29.98 in 10.0 mi South 11.5 mph - N/A   Partly Cloudy
12:53 PM 70.0 °F 59.0 °F 68% 29.96 in 10.0 mi South 11.5 mph - N/A   Scattered Clouds
1:53 PM 72.0 °F 60.1 °F 66% 29.93 in 10.0 mi South 9.2 mph - N/A   Partly Cloudy
2:53 PM 73.0 °F 60.1 °F 64% 29.91 in 10.0 mi South 10.4 mph - N/A   Clear
3:53 PM 75.0 °F 61.0 °F 62% 29.88 in 10.0 mi South 9.2 mph - N/A   Clear
4:53 PM 75.9 °F 62.1 °F 62% 29.86 in 10.0 mi South 11.5 mph - N/A   Clear
5:53 PM 75.0 °F 61.0 °F 62% 29.86 in 10.0 mi SSE 11.5 mph - N/A   Clear
6:53 PM 73.9 °F 62.1 °F 66% 29.85 in 10.0 mi SSE 5.8 mph - N/A   Clear
7:53 PM 69.1 °F 62.1 °F 78% 29.86 in 10.0 mi SSE 4.6 mph - N/A   Clear
8:53 PM 68.0 °F 61.0 °F 78% 29.87 in 10.0 mi SE 4.6 mph - N/A   Clear
9:53 PM 66.0 °F 60.1 °F 81% 29.88 in 10.0 mi SE 4.6 mph - N/A   Clear
10:53 PM 64.9 °F 59.0 °F 81% 29.88 in 10.0 mi Calm Calm - N/A   Clear
11:53 PM 64.0 °F 59.0 °F 84% 29.87 in 10.0 mi Calm Calm - N/A   Clear